Terminal Aerodrome Forecast
Issued by NWS

Home | Current Version | Previous Version | Text Only | Print | Product List | Glossary On
Versions: 1 2 3 4 5 6 7 8 9 10 11 12 13 14 15 16 17 18 19 20 21 22 23 24 25
000
FTUS41 KCAR 262336
TAFFVE
TAF
KFVE 262336Z 2700/2724 VRB02KT P6SM BKN250
     FM270500 05006KT P6SM SCT100 OVC180
     FM270900 05010G17KT P6SM OVC080
     FM271400 04013G20KT P6SM OVC030
     FM271530 04014G21KT 1 1/2SM -SN OVC015
     FM271630 04014G21KT 3/4SM -SN BLSN OVC008
     FM271800 04015G22KT 1/2SM SN BLSN OVC005
     FM272100 03015G22KT 3/4SM -SN BLSN OVC005=

USA.gov is the U.S. government's official web portal to all federal, state and local government web resources and services.